Showing default

FLOCK 4BE 7, 60481

Orbit data source: Space-Track

FLOCK 4BE 7, 60481 is a payload satellite owned by Planet (US) in SSO that was launched on Fri, 16 Aug 2024 UTC via an FALCON 9 launch vehicle from the Air Force Western Test Range (AFWTR). Payload-class satellites include a variety of spacecraft equipped with specific instruments for various scientific and technological missions. These include communications satellites like Starlink; space stations such as the ISS; scientific satellites like the Hubble; Earth observation satellites from companies like Planet Labs, Umbra, and HawkEye 360; GPS; miniature CubeSats for education and research; and military/defense satellites.

Loading next visibility...
Identifier
60481, 2024-149P
Orbit
SSO
Country
Flag of USUS
Related business
Manufacturer
Planet
Mission
Operational Commercial Imaging
Bus & Motor
CUBESAT 3U, Unknown motor
Mass
5.7 kg wet, 5.7 kg dry
Launch date (UTC)
2024-08-16 (1 year ago)
Launch vehicle
FALCON 9
Launch site
Air Force Western Test Range (AFWTR)
Object type
Payload
Rocket body
Debris
Shape & HBR
Box + 2 Pan, 1.0 m
Radar Cross Section
0.072 m², Medium (>0.1 m² and < 1m²)

Expand to show TLE details & history
Last TLE update: 21 hours ago

TLE from 21 hours ago
0 FLOCK 4BE 7
1 60481U 24149P   25353.17263786  .00011780  00000-0  36803-3 0  9997
2 60481  97.3942  70.5597 0003843 166.4540 193.6806 15.33323312 74608
Epoch: 2025-12-19T04:08Z
TLE epoch observation values (Epoch: 2025-12-19T04:08:35.911Z)
Latitude
-0.00002°
Longitude
-79.60753°
Altitude
471.57 km
Speed
7.629 km/s
True Right ascension
04h 42m 14s
True Declination
0° 00' 00"
Sunlit
Object was in full shadow at epoch
Visualization orbit readout
Latitude
Unknown
Longitude
Unknown
Altitude
Unknown
Speed
Unknown
Apparent Right ascension
Unknown
Apparent Declination
Unknown
Sunlit
N/A
Visualization observer readout
Local Sidereal Time
23:39:25
Azimuth
Unknown
Elevation
Unknown
Doppler factor
Unknown
Orbital elements
Apogee altitude
465.482 km
Perigee altitude
460.224 km
Semi-major axis
6,840.99 km
Eccentricity
0.00038
Inclination
97.3942°
RAAN
70.5597°
Arg. of periapsis
166.454°
True anomaly
193.67019°
Mean anomaly
193.6806°
Eccentric anomaly
193.67539°
Mean motion
3.83588 °/min
Orbital period
93.85 mins
BSTAR
0.00036803
Loading maneuver chart data...
Computing Atmospheric mass density...
Loading historical data...
Loading historical data...
Loading historical data...
Loading historical data...
Loading historical data...
Loading historical data...
Loading historical data...

Documentation

Showing up to 5 results
|